Date String (YYYY-MM-DD hh:mm:ss) UTC,Instrument flags,absolute air pressure of the measurement (hPa),sample flow rate (lpm),inlet stack bypass flow (lpm),air temperature of the measurement (°C),ambient temperature measured by the external sensor (°C),aerosol sample conditioner tube jacket temperature (°C),OPC LED temperature (°C),internal box temperature (°C),relative humidity of the measurement (%),span deviation,mass concentration of particles derived from Lorenz-Mie calculation of OPC scattering (μg/m³),mass concentration of particles derived from Lorenz-Mie calculation of OPC scattering (μg/m³),mass concentration of particles derived from Lorenz-Mie calculation of OPC scattering (μg/m³)
DateTimeUTC,F1_M11,P_M11,Q1_M11,Q2_M11,T1_M11,T2_M11,T3_M11,T4_M11,T5_M11,U1_M11,ZSPAN_M11,X0_M11,X2_M11,X1_M11
2023-11-24 03:00:00,SystemResetWarning,0832.6,5.00,000.00,019.7,018.8,000.0,028.1,020.9,18.6,0000.0,0011.40,0006.06,0005.11
2023-11-24 03:01:00,SystemResetWarning,0832.6,5.00,000.00,019.7,018.8,000.0,028.1,020.9,18.5,0000.0,0011.50,0006.05,0005.11
2023-11-24 03:02:00,SystemResetWarning,0832.6,4.99,000.00,019.7,018.8,000.0,028.1,020.8,18.5,0000.0,0012.00,0006.05,0005.10
2023-11-24 03:03:00,SystemResetWarning,0832.6,5.00,000.00,019.7,018.8,000.0,028.1,020.8,18.5,-000.0,0012.06,0006.07,0005.10
2023-11-24 03:04:00,SystemResetWarning,0832.6,5.00,000.00,019.7,018.8,000.0,028.1,020.9,18.6,0000.0,0012.17,0006.07,0005.11
2023-11-24 03:05:00,SystemResetWarning,0832.5,5.00,000.00,019.6,018.8,000.0,028.1,020.9,18.5,0000.0,0011.89,0006.08,0005.12
2023-11-24 03:06:00,SystemResetWarning,0832.5,5.00,000.00,019.6,018.7,000.0,028.1,020.9,18.4,0000.0,0011.53,0006.04,0005.12
2023-11-24 03:07:00,SystemResetWarning,0832.5,5.00,000.00,019.6,018.7,000.0,028.0,020.8,18.4,0000.0,0011.48,0006.00,0005.12
2023-11-24 03:08:00,SystemResetWarning,0832.6,5.01,000.00,019.6,018.7,000.0,028.0,020.8,18.3,0000.0,0011.81,0006.00,0005.11
2023-11-24 03:09:00,SystemResetWarning,0832.6,5.01,000.00,019.6,018.7,000.0,028.0,020.8,18.3,0000.0,0011.74,0006.02,0005.10
2023-11-24 03:10:00,SystemResetWarning,0832.6,4.99,000.00,019.6,018.7,000.0,028.0,020.8,18.3,0000.0,0012.70,0006.04,0005.10
2023-11-24 03:11:00,SystemResetWarning,0832.6,5.00,000.00,019.6,018.7,000.0,028.0,020.8,18.2,0000.0,0012.68,0006.03,0005.09
2023-11-24 03:12:00,SystemResetWarning,0832.7,5.00,000.00,019.6,018.7,000.0,028.0,020.8,18.2,0000.0,0012.58,0006.01,0005.07
2023-11-24 03:13:00,SystemResetWarning,0832.7,5.00,000.00,019.6,018.7,000.0,028.0,020.7,18.2,0000.0,0012.07,0005.99,0005.06
2023-11-24 03:14:00,SystemResetWarning,0832.7,5.00,000.00,019.6,018.6,000.0,028.0,020.7,18.2,0000.0,0012.01,0005.96,0005.05
2023-11-24 03:15:00,SystemResetWarning,0832.7,4.99,000.00,019.6,018.6,000.0,028.0,020.7,18.1,0000.0,0011.41,0005.92,0005.02
2023-11-24 03:16:00,SystemResetWarning,0832.6,5.00,000.00,019.5,018.6,000.0,028.0,020.7,18.1,0000.0,0011.40,0005.90,0004.99
2023-11-24 03:17:00,SystemResetWarning,0832.6,5.00,000.00,019.5,018.6,000.0,028.0,020.7,18.1,0000.0,0011.51,0005.90,0004.97
2023-11-24 03:18:00,SystemResetWarning,0832.5,5.00,000.00,019.5,018.6,000.0,028.0,020.7,18.1,0000.0,0011.28,0005.90,0004.96
2023-11-24 03:19:00,SystemResetWarning,0832.6,5.01,000.00,019.5,018.6,000.0,027.9,020.7,18.2,0000.0,0010.97,0005.89,0004.95
2023-11-24 03:20:00,SystemResetWarning,0832.6,5.00,000.00,019.5,018.6,000.0,027.9,020.8,18.2,0000.0,0010.90,0005.90,0004.93
2023-11-24 03:21:00,SystemResetWarning,0832.6,5.00,000.00,019.5,018.6,000.0,027.9,020.8,18.3,0000.0,0009.87,0005.84,0004.91
2023-11-24 03:22:00,SystemResetWarning,0832.6,5.00,000.00,019.5,018.6,000.0,027.9,020.7,18.4,0000.0,0009.85,0005.82,0004.88
2023-11-24 03:23:00,SystemResetWarning,0832.5,5.01,000.00,019.5,018.6,000.0,027.9,020.6,18.5,0000.0,0010.05,0005.80,0004.87
2023-11-24 03:24:00,SystemResetWarning,0832.5,5.00,000.00,019.5,018.6,000.0,027.9,020.7,18.5,0000.0,0010.39,0005.78,0004.86
2023-11-24 03:25:00,SystemResetWarning,0832.5,4.99,000.00,019.5,018.6,000.0,027.9,020.7,18.5,0000.0,0010.56,0005.75,0004.84
2023-11-24 03:26:00,SystemResetWarning,0832.5,4.99,000.00,019.5,018.6,000.0,027.9,020.7,18.5,0000.0,0010.95,0005.75,0004.83
2023-11-24 03:27:00,SystemResetWarning,0832.6,5.01,000.00,019.5,018.6,000.0,027.9,020.7,18.4,0000.0,0011.24,0005.73,0004.84
2023-11-24 03:28:00,SystemResetWarning,0832.5,5.01,000.00,019.5,018.6,000.0,027.9,020.6,18.3,0000.0,0011.49,0005.68,0004.84
2023-11-24 03:29:00,SystemResetWarning,0832.5,4.99,000.00,019.4,018.5,000.0,027.9,020.6,18.3,0000.0,0011.48,0005.66,0004.84
2023-11-24 03:30:00,SystemResetWarning,0832.5,4.99,000.00,019.4,018.5,000.0,027.8,020.6,18.3,0000.0,0011.46,0005.64,0004.83
2023-11-24 03:31:00,SystemResetWarning,0832.5,4.99,000.00,019.4,018.5,000.0,027.8,020.5,18.2,0000.0,0011.39,0005.60,0004.82
2023-11-24 03:32:00,SystemResetWarning,0832.5,5.00,000.00,019.4,018.5,000.0,027.8,020.5,18.2,0000.0,0012.05,0005.57,0004.81
2023-11-24 03:33:00,SystemResetWarning,0832.6,5.00,000.00,019.4,018.5,000.0,027.8,020.5,18.2,0000.0,0012.79,0005.55,0004.81
2023-11-24 03:34:00,SystemResetWarning,0832.6,5.00,000.00,019.4,018.5,000.0,027.8,020.5,18.2,0000.0,0012.94,0005.58,0004.81
2023-11-24 03:35:00,SystemResetWarning,0832.6,5.00,000.00,019.4,018.5,000.0,027.8,020.5,18.2,0000.0,0012.63,0005.59,0004.79
2023-11-24 03:36:00,SystemResetWarning,0832.6,5.00,000.00,019.4,018.5,000.0,027.8,020.5,18.1,0000.0,0012.59,0005.60,0004.77
2023-11-24 03:37:00,SystemResetWarning,0832.7,5.00,000.00,019.4,018.5,000.0,027.8,020.5,18.1,0000.0,0012.27,0005.57,0004.75
2023-11-24 03:38:00,SystemResetWarning,0832.7,5.00,000.00,019.3,018.4,000.0,027.8,020.5,18.1,0000.0,0013.31,0005.57,0004.72
2023-11-24 03:39:00,SystemResetWarning,0832.7,5.01,000.00,019.3,018.4,000.0,027.8,020.5,18.0,0000.0,0013.70,0005.54,0004.69
2023-11-24 03:40:00,SystemResetWarning,0832.7,5.00,000.00,019.3,018.4,000.0,027.7,020.5,18.0,0000.0,0014.36,0005.55,0004.67
2023-11-24 03:41:00,SystemResetWarning,0832.7,4.99,000.00,019.3,018.4,000.0,027.7,020.5,18.0,0000.0,0014.25,0005.50,0004.64
2023-11-24 03:42:00,SystemResetWarning,0832.7,4.99,000.00,019.3,018.4,000.0,027.7,020.5,17.9,0000.0,0014.32,0005.50,0004.62
2023-11-24 03:43:00,SystemResetWarning,0832.7,5.00,000.00,019.3,018.4,000.0,027.7,020.5,17.8,0000.0,0014.16,0005.50,0004.61
2023-11-24 03:44:00,SystemResetWarning,0832.7,5.01,000.00,019.3,018.4,000.0,027.7,020.4,17.8,0000.7,0013.44,0005.50,0004.60
2023-11-24 03:45:00,SystemResetWarning,0832.8,5.01,000.00,019.3,018.4,000.0,027.7,020.4,17.8,0004.2,0013.23,0005.48,0004.58
2023-11-24 03:46:00,SystemResetWarning,0832.7,5.00,000.00,019.3,018.4,000.0,027.7,020.5,17.8,0005.0,0013.36,0005.46,0004.59
2023-11-24 03:47:00,SystemResetWarning,0832.9,5.01,000.00,019.3,018.4,000.0,027.7,020.4,17.8,0004.8,0013.48,0005.40,0004.60
2023-11-24 03:48:00,SystemResetWarning,0833.0,4.98,000.00,019.3,018.4,000.0,027.7,020.4,17.8,0002.7,0013.91,0005.42,0004.60
2023-11-24 03:49:00,SystemResetWarning,0832.7,5.00,000.00,019.3,018.4,000.0,027.7,020.4,17.9,0000.9,0012.98,0005.43,0004.60
2023-11-24 03:50:00,SystemResetWarning,0832.7,5.01,000.00,019.2,018.3,000.0,027.7,020.3,17.9,0000.0,0012.31,0005.46,0004.61
2023-11-24 03:51:00,SystemResetWarning,0832.8,5.01,000.00,019.2,018.3,000.0,027.7,020.4,17.9,0000.0,0012.18,0005.43,0004.60
2023-11-24 03:52:00,SystemResetWarning,0832.8,5.00,000.00,019.2,018.3,000.0,027.6,020.3,17.9,0002.1,0012.66,0005.45,0004.61
2023-11-24 03:53:00,SystemResetWarning,0832.8,5.00,000.00,019.2,018.3,000.0,027.6,020.3,18.0,0005.0,0012.73,0005.45,0004.62
2023-11-24 03:54:00,SystemResetWarning,0832.8,5.00,000.00,019.2,018.3,000.0,027.6,020.4,17.9,0004.6,0012.32,0005.43,0004.61
2023-11-24 03:55:00,SystemResetWarning,0833.0,5.00,000.00,019.2,018.3,000.0,027.6,020.3,18.0,0004.2,0012.23,0005.40,0004.60
2023-11-24 03:56:00,SystemResetWarning,0833.2,5.00,000.00,019.2,018.3,000.0,027.6,020.3,17.9,0000.2,0012.07,0005.40,0004.61
2023-11-24 03:57:00,SystemResetWarning,0833.0,5.01,000.00,019.2,018.3,000.0,027.6,020.3,17.9,0000.6,0011.83,0005.38,0004.60
2023-11-24 03:58:00,SystemResetWarning,0833.0,5.01,000.00,019.2,018.3,000.0,027.6,020.3,17.9,0000.0,0011.47,0005.41,0004.61
2023-11-24 03:59:00,SystemResetWarning,0833.0,5.01,000.00,019.2,018.3,000.0,027.6,020.3,17.9,0001.9,0011.35,0005.43,0004.60
